CHALLENGE ONE (47956 NORAD) Tracking and Keplerian Element Data

This shows tracking and keplerian element data for the satellite.

Feedback or suggestion? Click here.




ElementValue
Catalog47956
NameCHALLENGE ONE
Epoch Orbit1360
Epoch Day173.5040423
Epoch Year2021
RAAN75.5459
Inclination97.5598
Eccentricity0.0021142
Argument of Perigee298.1268
Mean Anonmoly61.7822
Mean Motion15.05530371
Decay Rate1.19E-06
L11 47956U 21022AA 21173.50404230 .00000119 00000-0 12529-4 0 9994
L22 47956 97.5598 75.5459 0021142 298.1268 61.7822 15.05530371 13603

Live tracking and technical data element details for CHALLENGE ONE (NORAD 47956). CHALLENGE ONE can be tracked NOW for your location showing map with azimuth and elevation plus other details from your city location.

Track the satellite on the map from your city or location and see movement details for azimuth, elevation, latitude, longitude, range, height, and movement on the map or in text.







IsCatalogInMostPopularTable: catalog: 47956, numindb: 46
Update: records affected: 1



GetName: 47956 CHALLENGE ONE

Hit Count: updated at: Thu, 24 Jun 2021 02:12:39 GMT